STARLINK-32605, 61921

Orbit data source: Space-Track

STARLINK-32605, 61921 is a payload satellite owned by SpaceX/Seattle (US) in LEO that was launched on Mon, 11 Nov 2024 UTC via an FALCON 9 launch vehicle from the Air Force Eastern Test Range (AFETR). Payload-class satellites include a variety of spacecraft equipped with specific instruments for various scientific and technological missions. These include communications satellites like Starlink; space stations such as the ISS; scientific satellites like the Hubble; Earth observation satellites from companies like Planet Labs, Umbra, and HawkEye 360; GPS; miniature CubeSats for education and research; and military/defense satellites.

Loading next visibility...
Identifier
61921, 2024-207K
Orbit
LEO
Last TLE update
15 hours ago
Origin
Manufacturer
SpaceX/Seattle
Mission
Operational Commercial Communications
Bus & Motor
STARLINK V2M, Unknown motor
Mass
730 kg wet, ~700 kg dry
Launch date (UTC)
2024-11-11 (8 months ago)
Launch vehicle
FALCON 9
Launch site
Air Force Eastern Test Range (AFETR)
Object type
Payload
Rocket body
Debris
Shape & HBR
Box + 2 Pan, 29 m
Radar Cross Section
36.964 m², Large (>1 m²)

Expand to show TLE details & history

TLE from 15 hours ago
0 STARLINK-32605
1 61921U 24207K   25186.19833486  .00018754  00000-0  68898-3 0  9995
2 61921  42.9938 239.2489 0000542 230.7660 129.3143 15.27595342 36878
Epoch: 2025-07-05T04:45Z
TLE epoch observation values (Epoch: 2025-07-05T04:45:36.131Z)
Latitude
-0.00007°
Longitude
-115.59154°
Altitude
483.013 km
Speed
7.626 km/s
True Right ascension
15h 56m 59s
True Declination
0° 00' 00"
Sunlit
Object was in full shadow at epoch
Visualization orbit readout
Latitude
-30.00571°
Longitude
-157.26204°
Altitude
490.874 km
Speed
7.62 km/s
Apparent Right ascension
16h 11m 35s
Apparent Declination
-48° 22' 56"
Sunlit
Object is in daylight
Visualization observer readout
Local Sidereal Time
08:10:42
Azimuth
122.02° SE
Elevation
-47.401°
Doppler factor
1
Orbital elements
Apogee altitude
485.321 km
Perigee altitude
484.577 km
Semi-major axis
6,863.086 km
Eccentricity
0.00005
Inclination
42.9938°
RAAN
239.2489°
Arg. of periapsis
230.766°
True anomaly
Unknown
Mean anomaly
129.3143°
Eccentric anomaly
Unknown
Mean motion
3.81737 °/min
Orbital period
94.31 mins
BSTAR
0.00068898
Loading maneuver chart data...
Loading SW <> Apogee altitude chart data...
Loading historical data...
Loading historical data...
Loading historical data...
Loading historical data...
Loading historical data...
Loading historical data...
Loading historical data...

STARLINK-32605 Visibility forecast

Observer location: undefined°, undefined°

Span
Click to sort rows by Start time (UTC) header in descending order
Start Az.
Max El. time (UTC)
Max El. Az.
Max El.
End time (UTC)
End Az.
5 mins2025-07-06 06:02:52.351Z195.535° SSW2025-07-06 06:05:52.351Z141.277° SSE20.027°2025-07-06 06:07:52.351Z102.628° ESE
6 mins2025-07-06 07:41:52.351Z248.995° W2025-07-06 07:43:52.351Z243.332° WSW42.64°2025-07-06 07:47:52.351Z72.308° E
6 mins2025-07-06 09:20:52.351Z286.259° WNW2025-07-06 09:23:52.351Z24.4° NE36.82°2025-07-06 09:26:52.351Z75.146° E
5 mins2025-07-06 11:00:52.351Z292.623° NW2025-07-06 11:02:52.351Z67.117° ENE43.836°2025-07-06 11:05:52.351Z103.345° ESE
4 mins2025-07-06 12:39:52.351Z250.41° W2025-07-06 12:40:52.351Z226.534° WSW24.263°2025-07-06 12:43:52.351Z159.156° S
|